DECAYED

STARLINK-1091, 44940 (Decayed)

Orbit data source: Space-Track

STARLINK-1091, 44940 was a payload satellite owned by SpaceX/Seattle (US) in LEO that was launched on Tue, 07 Jan 2020 UTC via an FALCON 9 launch vehicle from the Air Force Eastern Test Range (AFETR). Payload-class satellites include a variety of spacecraft equipped with specific instruments for various scientific and technological missions. These include communications satellites like Starlink; space stations such as the ISS; scientific satellites like the Hubble; Earth observation satellites from companies like Planet Labs, Umbra, and HawkEye 360; GPS; miniature CubeSats for education and research; and military/defense satellites.

Not visible in the next 10 days
Identifier
44940, 2020-001AC
Orbit
Decayed
Country
Flag of USUS
Related business
Manufacturer
SpaceX/Seattle
Mission
Decayed Commercial Communications
Bus & Motor
STARLINK, Unknown motor
Mass
260 kg wet, ~248 kg dry
Launch date (UTC)
2020-01-07 (6 years ago)
Launch vehicle
FALCON 9
Launch site
Air Force Eastern Test Range (AFETR)
Object type
Payload
Rocket body
Debris
Shape & HBR
Box + 1 Pan, 10.1 m
Radar Cross Section
13.562 m², Large (>1 m²)

Expand to show TLE details & history
Last TLE update: 7 months ago

TLE from 7 months ago
0 STARLINK-1091
1 44940U 20001AC  25312.77625128  .06444148  12255-4  84970-3 0  9996
2 44940  53.0227  73.6366 0004707 304.9883  55.0719 16.34785646322954
Epoch: 2025-11-08T18:37Z
TLE epoch observation values (Epoch: 2025-11-08T18:37:48.110Z)
Latitude
-0°
Longitude
105.98513°
Altitude
178.869 km
Speed
7.801 km/s
True Right ascension
04h 54m 32s
True Declination
0° 00' 00"
Sunlit
Object was in full shadow at epoch
Visualization orbit readout
Latitude
Unknown
Longitude
Unknown
Altitude
Unknown
Speed
Unknown
Apparent Right ascension
Unknown
Apparent Declination
Unknown
Sunlit
N/A
Visualization observer readout
Local Sidereal Time
23:19:26
Azimuth
Unknown
Elevation
Unknown
Doppler factor
Unknown
Orbital elements
Apogee altitude
183.088 km
Perigee altitude
176.914 km
Semi-major axis
6,558.138 km
Eccentricity
0.00047
Inclination
53.0227°
RAAN
73.6366°
Arg. of periapsis
304.9883°
True anomaly
55.11614°
Mean anomaly
55.0719°
Eccentric anomaly
55.09402°
Mean motion
4.0867 °/min
Orbital period
88.09 mins
BSTAR
0.0008497
Loading maneuver chart data...
Computing Atmospheric mass density...

Documentation

Showing up to 5 results
|